Terminal Aerodrome Forecast
Issued by NWS Brownsville, TX

Home | Current Version | Previous Version | Text Only | Print | Product List | Glossary On
Versions: 1 2 3 4 5 6 7 8 9 10 11 12 13 14 15 16
000
FTUS44 KBRO 260523
TAFHRL
TAF
KHRL 260523Z 2606/2706 15006KT P6SM SKC
     FM261500 17018G25KT P6SM SCT030 SCT250
     FM261900 17022G28KT P6SM FEW050 SCT250
     FM270000 16019G25KT P6SM SCT250
     FM270300 16014KT P6SM SCT250=

USA.gov is the U.S. government's official web portal to all federal, state and local government web resources and services.